Al Farabi 2 (43805 NORAD) Tracking and Keplerian Element Data

This shows tracking and keplerian element data for the satellite.

Feedback or suggestion? Click here.




ElementValue
Catalog43805
NameAl Farabi 2
Epoch Orbit4229
Epoch Day255.75266636
Epoch Year2019
RAAN326.6306
Inclination97.737
Eccentricity0.001636
Argument of Perigee46.8287
Mean Anonmoly313.4297
Mean Motion14.95376661
Decay Rate6.48E-06
L11 43805U 18099AZ 19255.75266636 .00000648 00000-0 63829-4 0 9990
L22 43805 97.7370 326.6306 0016360 46.8287 313.4297 14.95376661 42296

Live tracking and technical data element details for Al Farabi 2 (NORAD 43805). Al Farabi 2 can be tracked NOW for your location showing map with azimuth and elevation plus other details from your city location.

Track the satellite on the map from your city or location and see movement details for azimuth, elevation, latitude, longitude, range, height, and movement on the map or in text.







IsCatalogInMostPopularTable: catalog: 43805, numindb: 107
Update: records affected: 1



GetName: 43805 Al Farabi 2

Hit Count: updated at: Tue, 17 Sep 2019 21:50:36 GMT